This is the latest recevied weather packets stored in our database for station/object N8JE-13. If no packets are shown the sender has not sent any weather packets the latest 10 day(s).
| Time | Temp. | Humidity | Pressure | Rain* | Wind** | Luminosity | Snow |
|---|---|---|---|---|---|---|---|
| 1778053551 | 6.67° C | 95% | 1007.3 hPa | 0.76 mm | - | - | - |
| 1778053250 | 6.67° C | 95% | 1007.3 hPa | 0.51 mm | - | - | - |
| 1778052951 | 6.67° C | 95% | 1007.3 hPa | 0.76 mm | - | - | - |
| 1778052651 | 6.67° C | 95% | 1007.2 hPa | 1.02 mm | - | - | - |
| 1778052351 | 6.67° C | 95% | 1007 hPa | 1.27 mm | - | - | - |
| 1778052052 | 6.67° C | 95% | 1007 hPa | 1.27 mm | - | - | - |
| 1778051751 | 6.67° C | 95% | 1006.8 hPa | 2.03 mm | - | - | - |
| 1778051451 | 7.22° C | 94% | 1006.9 hPa | 2.03 mm | - | - | - |
| 1778051151 | 7.22° C | 94% | 1006.7 hPa | 2.29 mm | - | - | - |
| 1778050851 | 7.22° C | 95% | 1006.9 hPa | 2.29 mm | - | - | - |
| 1778050552 | 7.22° C | 95% | 1006.7 hPa | 2.54 mm | - | - | - |
| 1778050251 | 7.22° C | 95% | 1006.7 hPa | 2.29 mm | - | - | - |
| 1778049951 | 7.22° C | 95% | 1007 hPa | 2.54 mm | - | - | - |
| 1778049651 | 7.22° C | 95% | 1006.9 hPa | 2.79 mm | - | - | - |
| 1778049351 | 7.22° C | 95% | 1006.8 hPa | 2.79 mm | - | - | - |
| 1778049052 | 7.22° C | 94% | 1006.7 hPa | 2.79 mm | - | - | - |
| 1778048752 | 7.22° C | 95% | 1006.8 hPa | 3.05 mm | - | - | - |
| 1778048451 | 7.22° C | 94% | 1007 hPa | 3.3 mm | - | - | - |
| 1778048151 | 7.22° C | 95% | 1007.1 hPa | 2.79 mm | - | - | - |
| 1778047851 | 7.22° C | 94% | 1007 hPa | 3.3 mm | - | - | - |
| 1778047551 | 7.22° C | 94% | 1006.9 hPa | 3.05 mm | - | - | - |
| 1778047251 | 7.22° C | 94% | 1007 hPa | 3.05 mm | - | - | - |
| 1778046950 | 7.22° C | 94% | 1007.1 hPa | 3.05 mm | - | - | - |
| 1778046650 | 7.22° C | 94% | 1007 hPa | 3.05 mm | - | - | - |
| 1778046351 | 7.22° C | 94% | 1007.2 hPa | 2.79 mm | - | - | - |
* Rain latest hour (hover to see other rain measurements)
** Current wind speed in m/s (hover to see current wind gust speed)